User: anonymous   Login
Location: ??????
(55.6500°N, 37.8000°E)
Time: 03:19:41
(UTC+00:00)
Language:

FENGYUN 3A - Orbit

View from above orbital plane
View from above orbital plane
View from above satellite
View from above satellite

Ground track
Ground track

The orbit data is extracted from the following two-line orbital elements,

1 32958U 08026A   24167.83421673  .00000229  00000-0  12974-3 0  9996
2 32958  98.6040 114.9924 0009906  77.9513 282.2773 14.19105196831653
Epoch (UTC): 15 June 2024 20:01:16
Eccentricity: 0.0009906
inclination: 98.6040°
perigee height: 821 km
apogee height: 835 km
right ascension of ascending node: 114.9924°
argument of perigee: 77.9513°
revolutions per day: 14.19105196
mean anomaly at epoch: 282.2773°
orbit number at epoch: 83165

The dashed part of the orbit path shows where the satellite is in the earth's shadow,  

DLR